Regional Weather Roundup
Issued by NWS Sterling, VA

Home | Current Version | Previous Version | Graphics & Text | Print | Product List | Glossary On
Versions: 1 2 3 4 5 6 7 8 9 10 11 12 13 14 15 16 17 18 19 20 21 22 23 24 25 26 27 28 29 30 31 32 33 34 35 36 37 38 39 40 41 42 43 44 45 46 47 48 49 50
000
ASUS41 KLWX 010610
RWRLWX

REGIONAL WEATHER ROUNDUP
NATIONAL WEATHER SERVICE BALTIMORE MD/WASHINGTON DC
100 AM EST SUN MAR 01 2015

Note: "FAIR" indicates few or no clouds below 12,000 feet
with no significant weather and/or obstructions to visibility.
 TC=TEMPERATURE CELSIUS

 * =Non NWS site. Station does not report precipitation (e.g. rain,
    snow, etc.), thunder, or fog.

DCZ001-MDZ009-015-VAZ040>042-051-053>054-010700-
WASHINGTON METRO

CITY           SKY/WX    TMP DP  RH WIND       PRES   REMARKS
WASHINGTON NAT MOCLDY    26  11  52 CALM      30.73F
DULLES         PTCLDY    21   9  59 S5        30.70S
ANDREWS AFB    MOCLDY    21   8  59 S2        30.70F
FT BELVOIR     PTCLDY    20  13  75 CALM      30.73S
QUANTICO       MOCLDY    26  12  55 S10       30.75S WCI  16
COLLEGE PARK*  CLEAR     19  14  79 CALM      30.73S
LEESBURG*      PTCLDY    19  12  73 SW3       30.71R
MANASSAS*      PTCLDY    16  10  79 CALM      30.72R
GAITHERSBURG*  PTCLDY    18   5  57 CALM      30.72S

$$

MDZ006>007-011-014-010700-
BALTIMORE METRO

CITY           SKY/WX    TMP DP  RH WIND       PRES   REMARKS
BWI AIRPORT    PTCLDY    16   8  71 CALM      30.71F
MD SCIENCE CTR   N/A      1  52 100 MISG      30.69F
MARTIN STATE   PTCLDY    19  14  79 CALM      30.75S
ANNAPOLIS      CLEAR     19  14  81 NW3       30.73F
FORT MEADE*    CLEAR     14   9  79 CALM      30.74S

$$

MDZ012-015-019>023-010700-
MARYLAND EASTERN SHORE

CITY           SKY/WX    TMP DP  RH WIND       PRES   REMARKS
OCEAN CITY     CLEAR     14  10  84 CALM      30.74F
SALISBURY      CLEAR     17  10  74 CALM      30.73F
BAY BRIDGE AP*   N/A     21  14  73 CALM      30.73F
CAMBRIDGE*     CLEAR     21  14  73 CALM      30.72F
EASTON*        CLEAR     21  15  77 CALM      30.76F

$$

MDZ017>025-010700-
SOUTHERN MARYLAND

CITY           SKY/WX    TMP DP  RH WIND       PRES   REMARKS
PATUXENT RIVER MOCLDY    20  13  74 S5        30.73F
ST INIGOES     MOCLDY    17  11  77 CALM      30.73F
LEONARDTOWN*     N/A     19  12  73 MISG        N/A

$$

MDZ003>005-010700-
NORTH CENTRAL MARYLAND

CITY           SKY/WX    TMP DP  RH WIND       PRES   REMARKS
FREDERICK*     PTCLDY    18   9  68 CALM      30.74R
HAGERSTOWN APT MOCLDY    23   3  42 SE5       30.64F
WESTMINSTER*   PTCLDY    19   3  49 S5        30.66S

$$

MDZ501>502-010700-
WESTERN MARYLAND

CITY           SKY/WX    TMP DP  RH WIND       PRES   REMARKS
OAKLAND*       CLOUDY    19   3  49 SE14      30.40F WCI   6
CUMBERLAND*    MOCLDY    27  12  54 CALM      30.64F

$$

VAZ025>031-010700-
SHENANDOAH VALLEY

CITY           SKY/WX    TMP DP  RH WIND       PRES   REMARKS
WINCHESTER*    PTCLDY    19   5  53 CALM      30.64S
FRONT ROYAL*   MOCLDY    18   9  68 W3        30.64R
LURAY*         CLOUDY    23  18  80 S5        30.64R
NEW MARKET*    CLOUDY    16  11  81 CALM      30.63S
STAUNTON*      CLEAR     25   9  51 S6        30.65R
WAYNESBORO*    FAIR      22   8  56 S3        30.61S

$$

WVZ021-048>050-054>055-010700-
EASTERN WEST VIRGINIA PANHANDLE

CITY           SKY/WX    TMP DP  RH WIND       PRES   REMARKS
MARTINSBURG    CLEAR     20  10  65 CALM      30.66S
PETERSBURG*    NOT AVBL

$$

VAZ036>039-050-010700-
CENTRAL FOOTHILLS

CITY           SKY/WX    TMP DP  RH WIND       PRES   REMARKS
CHARLOTTESVILL CLEAR     22  10  60 W3        30.68F
CULPEPER*      CLOUDY    19  16  86 CALM      30.70F
ORANGE*        PTCLDY    23  14  68 CALM      30.71F
GORDONSVILLE*  FAIR      20  13  77 CALM      30.69F
WARRENTON*     CLOUDY    19  18  96 CALM      30.69F

$$

VAZ055>057-010700-
NORTH AND CENTRAL PIEDMONT

CITY           SKY/WX    TMP DP  RH WIND       PRES   REMARKS
FREDERICKSBRG* CLOUDY    25  13  61 CALM      30.72F
STAFFORD*      CLOUDY    21  12  68 CALM      30.76S

$$

NCZ024-NYZ072-PAZ021-071-VAZ022-071-010700-
OTHER REGIONAL OBSERVATIONS

CITY           SKY/WX    TMP DP  RH WIND       PRES   REMARKS
NEW YORK CITY  CLEAR     26  -1  31 W5        30.73F
PHILADELPHIA   FAIR      23   7  50 CALM      30.73F
PITTSBURGH     CLOUDY    23   3  42 NE3       30.49F
ROANOKE        PTCLDY    26  13  57 SE6       30.65F
RICHMOND       MOCLDY    24  12  60 CALM      30.71F
RALEIGH        CLOUDY    30  16  56 E6        30.66F

$$

ANZ530>537-010700-
MARINE OBSERVATIONS

STATION/POSITION TIME  TEMP    WIND        PRES
                       AIR SEA DIR/SP/G
                 (UTC) (F)     (DEG/KT/KT) (MB)
THOMAS PT LIGHT  0600   27 31  160/  7/  7 1041.5F
BALT KEY BRIDGE  0500   24     230/  3/  3 1041.1F
COVE POINT       0500   25     170/  9/ 10 1040.8F
LEWISETTA        0500   23 33     CALM     1040.8F
SOLOMONS ISLAND  0500      32                N/A

$$




USA.gov is the U.S. government's official web portal to all federal, state and local government web resources and services.